Regional Weather Roundup
Issued by NWS

Home | Current Version | Previous Version | Text Only | Print | Product List | Glossary Off
Versions: 1 2 3 4 5 6 7 8 9 10 11 12 13 14 15 16 17 18 19 20 21 22 23 24 25 26 27 28 29 30 31 32 33 34 35 36 37 38 39 40 41 42 43 44 45 46 47 48 49 50

000
ASUS45 KABQ 202010
RWRNM
WEATHER ROUNDUP FOR NEW MEXICO
NATIONAL WEATHER SERVICE ALBUQUERQUE NM
200 PM MDT MON OCT 20 2014

NOTE: "FAIR" MEANS FEW OR NO CLOUDS BELOW 12,000 FEET AGL WITH NO
       SIGNIFICANT WEATHER OR OBSTRUCTIONS TO VISION.

      THIS PRODUCT IS RELEASED AS TWO VERSIONS.  ONE VERSION NEAR
      THE TOP OF THE HOUR CONTAINING PRELIMINARY DATA FROM ALBUQUERQUE
      AND OTHER STATIONS.  A FINAL VERSION WITH ADDITIONAL DATA IS
      ISSUED ABOUT 10 MINUTES AFTER THE HOUR.

NMZ501-503-504-510>518-202100-
NORTHWEST PLATEAU/NORTHCENTRAL MOUNTAINS

CITY           SKY/WX    TMP DP  RH WIND       PRES   REMARKS
FARMINGTON     MOSUNNY   71  39  31 CALM      30.13F
LOS ALAMOS     MOSUNNY   64  34  33 S7        30.24F
SANTA FE       CLOUDY    69  37  30 E6        30.17F
TAOS           PTSUNNY   66  30  26 S9        30.22F
ANGEL FIRE     CLOUDY    61  29  29 SE13G18   30.31S

$$
NMZ402-403-502-505>509-202100-
WESTCENTRAL MOUNTAINS/SOUTHWEST MOUNTAINS

CITY           SKY/WX    TMP DP  RH WIND       PRES   REMARKS
GALLUP         CLOUDY    60  49  66 NE12      30.19F
GRANTS         SUNNY     66  39  37 SE8       30.20F
SILVER CITY    CLOUDY    63  48  59 SE12      30.14F

$$
NMZ407-409-411-412-202100-
SOUTHERN DESERTS

CITY           SKY/WX    TMP DP  RH WIND       PRES   REMARKS
LORDSBURG      MOCLDY    61  52  72 MISG      30.07F
DEMING         CLOUDY    70  53  54 E10       30.07F
LAS CRUCES     CLOUDY    69  51  53 E6        30.08F
HOLLOMAN AFB   PTSUNNY   70  55  58 W8        30.06F
T OR C         PTSUNNY   69  47  45 S6        30.10F

$$
NMZ519>523-202100-
CENTRAL VALLEYS/CENTRAL HIGHLANDS

CITY           SKY/WX    TMP DP  RH WIND       PRES   REMARKS
ALBUQUERQUE    PTSUNNY   69  43  38 VRB5      30.14F
DOUBLE EAGLE   MOSUNNY   72  43  35 S7        30.17F
MORIARTY ARPT  MOCLDY    69  36  30 SE13      30.17F
CLINES CORNERS PTSUNNY   63  40  42 SE12      30.21F
BELEN          FAIR      69  44  39 SE7       30.14F
SOCORRO        FAIR      70  45  40 N3        30.11F

$$
NMZ524>526-539-540-202100-
SOUTHCENTRAL MOUNTAINS

CITY           SKY/WX    TMP DP  RH WIND       PRES   REMARKS
RUIDOSO        NOT AVBL

$$
NMZ527>531-202100-
NORTHEAST HIGHLANDS/NORTHEAST PLAINS

CITY           SKY/WX    TMP DP  RH WIND       PRES   REMARKS
LAS VEGAS      MOSUNNY   66  40  38 NE10      30.23F
RATON          SUNNY     69  36  29 SE5       30.19F
CLAYTON        SUNNY     72  42  34 NE10      30.16F

$$
NMZ532>537-202100-
EASTCENTRAL PLAINS

CITY           SKY/WX    TMP DP  RH WIND       PRES   REMARKS
TUCUMCARI      SUNNY     76  46  34 VRB7      30.10F
CANNON AFB     MOSUNNY   73  52  47 SW6       30.11F
CLOVIS AIRPORT SUNNY     73  52  46 SW7       30.13F

$$
NMZ028-029-538-202100-
SOUTHEAST PLAINS

CITY           SKY/WX    TMP DP  RH WIND       PRES   REMARKS
ROSWELL        CLOUDY    72  56  57 CALM      30.09F
CARLSBAD       CLOUDY    69  58  67 SE5       30.07F
HOBBS          PTSUNNY   73  55  53 E12       30.10F


$$



USA.gov is the U.S. government's official web portal to all federal, state and local government web resources and services.